Weather observations for the past three days for
The Florida Keys - Marathon International Airport
| Date | Time (edt) | Wind (kph) | Vis. (km) | Weather | Sky Cond. | Temperature (ºC) | Relative Humidity | Wind Chill (°C) | Heat Index (°C) | Pressure | Precipitation (cm) | ||||||
|---|---|---|---|---|---|---|---|---|---|---|---|---|---|---|---|---|---|
| Air | Dwpt | 6 hour | altimeter (cm) | sea level (mb) | 1 hr | 3 hr | 6 hr | ||||||||||
| Max. | Min. | ||||||||||||||||
| 07 | 02:53 | SE 15 | 16.09 | Partly Cloudy | SCT021 | 26.7 | 22.2 | 76% | 29 | 76.15 | 1015.0 | ||||||
| 07 | 01:53 | SE 15 | 16.09 | Fair | CLR | 26.7 | 22.2 | 27.2 | 26.1 | 76% | 29 | 76.17 | 1015.4 | ||||
| 07 | 00:53 | E 13 | 16.09 | Fair | CLR | 26.7 | 21.7 | 74% | 29 | 76.23 | 1016.0 | ||||||
| 06 | 23:53 | E 13 | 16.09 | Fair | CLR | 26.7 | 21.7 | 74% | 29 | 76.23 | 1016.1 | ||||||
| 06 | 22:53 | E 13 | 16.09 | Fair | CLR | 26.7 | 21.7 | 74% | 29 | 76.23 | 1016.1 | ||||||
| 06 | 21:53 | E 11 | 16.09 | Fair | CLR | 26.7 | 21.7 | 74% | 29 | 76.2 | 1016.0 | ||||||
| 06 | 20:53 | E 7 | 16.09 | Fair | CLR | 26.7 | 22.2 | 76% | 29 | 76.23 | 1016.1 | ||||||
| 06 | 19:53 | SE 9 | 16.09 | Fair | CLR | 27.2 | 22.2 | 28.9 | 27.2 | 74% | 30 | 76.2 | 1015.6 | ||||
| 06 | 18:53 | SE 9 | 16.09 | Fair | CLR | 27.8 | 21.7 | 69% | 30 | 76.17 | 1015.6 | ||||||
| 06 | 17:53 | E 9 | 16.09 | Fair | CLR | 28.3 | 22.2 | 70% | 31 | 76.15 | 1015.2 | ||||||
| 06 | 16:53 | SE 7 | 16.09 | Fair | CLR | 28.3 | 22.2 | 70% | 31 | 76.15 | 1015.1 | ||||||
| 06 | 15:53 | SE 11 | 16.09 | Fair | CLR | 28.3 | 22.2 | 70% | 31 | 76.17 | 1015.6 | ||||||
| 06 | 14:53 | SE 11 | 16.09 | Fair | CLR | 28.9 | 22.8 | 70% | 32 | 76.23 | 1016.3 | ||||||
| 06 | 13:53 | Vrbl 9 | 16.09 | Fair | CLR | 28.3 | 22.2 | 28.9 | 26.7 | 70% | 31 | 76.28 | 1016.8 | ||||
| 06 | 12:53 | SE 9 | 16.09 | Fair | CLR | 28.3 | 22.2 | 70% | 31 | 76.28 | 1016.9 | ||||||
| 06 | 11:53 | Vrbl 7 | 16.09 | Fair | CLR | 28.3 | 21.7 | 67% | 31 | 76.28 | 1017.0 | ||||||
| 06 | 10:53 | SE 9 | 16.09 | Fair | CLR | 27.8 | 22.2 | 72% | 30 | 76.28 | 1016.7 | ||||||
| 06 | 09:53 | SE 13 | 16.09 | Fair | CLR | 27.2 | 21.7 | 72% | 29 | 76.25 | 1016.5 | ||||||
| 06 | 08:53 | S 9 | 16.09 | Fair | CLR | 27.2 | 21.7 | 72% | 29 | 76.23 | 1016.1 | ||||||
| 06 | 07:53 | SE 7 | 16.09 | Fair | CLR | 26.7 | 21.1 | 26.7 | 23.9 | 71% | 28 | 76.23 | 1016.0 | ||||
| 06 | 06:53 | Calm | 16.09 | Fair | CLR | 25.6 | 21.1 | 76% | 27 | 76.17 | 1015.6 | ||||||
| 06 | 05:53 | Calm | 16.09 | A Few Clouds | FEW037 | 25 | 20.6 | 77% | 26 | 76.15 | 1015.2 | ||||||
| 06 | 04:53 | Calm | 16.09 | Partly Cloudy | FEW027 SCT035 | 25 | 21.1 | 79% | 26 | 76.12 | 1014.8 | ||||||
| 06 | 03:53 | Calm | 16.09 | Mostly Cloudy | SCT028 BKN038 | 24.4 | 21.1 | 82% | 25 | 76.12 | 1014.6 | ||||||
| 06 | 02:53 | Calm | 16.09 | Mostly Cloudy | BKN030 | 24.4 | 21.1 | 82% | 25 | 76.12 | 1014.7 | ||||||
| 06 | 01:53 | Calm | 16.09 | Fair | CLR | 25 | 21.1 | 27.2 | 25 | 79% | 26 | 76.15 | 1015.0 | ||||
| 06 | 00:53 | Calm | 16.09 | A Few Clouds | FEW033 | 26.1 | 20.6 | 72% | 28 | 76.2 | 1015.7 | ||||||
| 05 | 23:53 | Vrbl 6 | 16.09 | A Few Clouds | FEW037 | 26.7 | 20.6 | 69% | 28 | 76.2 | 1015.9 | ||||||
| 05 | 22:53 | Calm | 16.09 | Fair | CLR | 26.1 | 21.1 | 74% | 28 | 76.17 | 1015.5 | ||||||
| 05 | 21:53 | SW 7 | 16.09 | Fair | CLR | 26.7 | 20.6 | 69% | 28 | 76.12 | 1014.7 | ||||||
| 05 | 20:53 | Calm | 16.09 | Fair | CLR | 27.2 | 20.6 | 67% | 29 | 76.1 | 1014.4 | ||||||
| 05 | 19:53 | W 7 | 16.09 | Fair | CLR | 27.2 | 21.1 | 30 | 27.2 | 69% | 29 | 76.05 | 1013.8 | ||||
| 05 | 18:53 | NW 9 | 16.09 | Fair | CLR | 27.8 | 21.7 | 69% | 30 | 76.05 | 1013.8 | ||||||
| 05 | 17:53 | NW 9 | 16.09 | Fair | CLR | 28.3 | 20.6 | 63% | 30 | 76.02 | 1013.3 | ||||||
| 05 | 16:53 | Vrbl 7 | 16.09 | Fair | CLR | 28.9 | 20.6 | 61% | 31 | 76.02 | 1013.5 | ||||||
| 05 | 15:53 | NW 9 | 16.09 | Fair | CLR | 28.9 | 20.6 | 61% | 31 | 76.07 | 1014.0 | ||||||
| 05 | 14:53 | Vrbl 7 | 16.09 | Fair | CLR | 29.4 | 21.1 | 61% | 32 | 76.1 | 1014.5 | ||||||
| 05 | 13:53 | Vrbl 6 | 16.09 | Fair | CLR | 28.9 | 21.7 | 30 | 25.6 | 65% | 32 | 76.12 | 1014.9 | ||||
| 05 | 12:53 | N 7 | 16.09 | Fair | CLR | 28.9 | 20.6 | 61% | 31 | 76.15 | 1015.0 | ||||||
| 05 | 11:53 | N 9 | 16.09 | Fair | CLR | 28.3 | 22.2 | 70% | 31 | 76.15 | 1015.0 | ||||||
| 05 | 10:53 | Vrbl 7 | 16.09 | Fair | CLR | 27.8 | 22.2 | 72% | 30 | 76.15 | 1015.2 | ||||||
| 05 | 09:53 | Vrbl 7 | 16.09 | A Few Clouds | FEW020 | 27.2 | 22.8 | 77% | 30 | 76.12 | 1014.9 | ||||||
| 05 | 08:53 | N 6 | 16.09 | A Few Clouds | FEW029 | 26.7 | 23.3 | 82% | 29 | 76.1 | 1014.3 | ||||||
| 05 | 07:53 | Vrbl 6 | 16.09 | Fair | CLR | 25.6 | 23.9 | 26.1 | 23.3 | 90% | 27 | 76.05 | 1013.7 | 0.76 | |||
| 05 | 06:53 | Vrbl 6 | 16.09 | Mostly Cloudy | BKN016 | 24.4 | 23.3 | 94% | 24 | 76 | 1012.9 | ||||||
| 05 | 05:53 | Calm | 16.09 | Fair | CLR | 23.3 | 22.8 | 97% | 75.95 | 1012.4 | |||||||
| 05 | 04:53 | E 6 | 16.09 | Partly Cloudy | SCT060 | 23.3 | 22.2 | 94% | 75.95 | 1012.5 | 0.76 | ||||||
| 05 | 03:53 | Calm | 16.09 | Fair | CLR | 23.3 | 21.7 | 91% | 75.95 | 1012.3 | 0.74 | ||||||
| 05 | 02:53 | NW 7 | 16.09 | Light Rain | SCT019 BKN049 BKN065 | 25.6 | 23.3 | 87% | 27 | 75.95 | 1012.3 | 0.03 | |||||
| 05 | 01:53 | Calm | 16.09 | Mostly Cloudy | BKN085 | 25.6 | 22.8 | 26.7 | 25.6 | 85% | 27 | 76 | 1013.0 | ||||
| 05 | 00:53 | Calm | 16.09 | Overcast | SCT020 BKN027 OVC085 | 26.1 | 22.8 | 82% | 28 | 76.02 | 1013.5 | ||||||
| 04 | 23:53 | Calm | 16.09 | Mostly Cloudy | SCT018 BKN085 | 25.6 | 22.8 | 85% | 27 | 76.07 | 1014.2 | ||||||
| 04 | 22:53 | S 7 | 16.09 | Partly Cloudy | SCT085 | 26.1 | 22.2 | 79% | 28 | 76.05 | 1013.9 | ||||||
| 04 | 21:53 | SE 7 | 16.09 | Partly Cloudy | FEW018 SCT085 | 26.1 | 22.8 | 82% | 28 | 76.02 | 1013.5 | ||||||
| 04 | 20:53 | SE 11 | 16.09 | Mostly Cloudy | FEW018 BKN070 | 26.1 | 22.8 | 82% | 28 | 76 | 1013.0 | ||||||
| 04 | 19:53 | SE 6 | 16.09 | A Few Clouds | FEW018 | 26.1 | 22.8 | 28.3 | 26.1 | 82% | 28 | 75.97 | 1012.8 | ||||
| 04 | 18:53 | SE 9 | 16.09 | Fair | CLR | 26.7 | 22.2 | 76% | 29 | 75.95 | 1012.5 | ||||||
| 04 | 17:53 | SE 11 | 16.09 | Fair | CLR | 27.2 | 22.2 | 74% | 30 | 75.95 | 1012.4 | ||||||
| 04 | 16:53 | E 13 | 16.09 | Mostly Cloudy | BKN023 | 27.2 | 22.2 | 74% | 30 | 75.97 | 1012.6 | ||||||
| 04 | 15:53 | NE 11 | 16.09 | Fair | CLR | 28.3 | 22.8 | 72% | 32 | 76 | 1013.1 | ||||||
| 04 | 14:53 | Vrbl 9 | 16.09 | Partly Cloudy | FEW015 SCT090 | 27.2 | 22.8 | 77% | 30 | 76.07 | 1014.0 | ||||||
| 04 | 13:53 | NE 15 | 16.09 | Fair | CLR | 27.2 | 22.8 | 27.8 | 25 | 77% | 30 | 76.1 | 1014.4 | ||||
| 04 | 12:53 | Vrbl 11 | 16.09 | A Few Clouds | FEW013 | 27.2 | 22.8 | 77% | 30 | 76.12 | 1014.7 | ||||||
| 04 | 11:53 | Vrbl 11 | 16.09 | Mostly Cloudy | BKN016 BKN021 BKN065 | 26.7 | 22.8 | 79% | 29 | 76.15 | 1015.0 | ||||||
| 04 | 10:53 | Calm | 16.09 | Overcast | BKN016 BKN023 OVC055 | 26.1 | 22.8 | 82% | 28 | 76.15 | 1015.1 | ||||||
| 04 | 09:53 | Calm | 16.09 | Mostly Cloudy | SCT016 BKN060 | 26.7 | 22.8 | 79% | 29 | 76.1 | 1014.6 | ||||||
| 04 | 08:53 | Vrbl 6 | 16.09 | Partly Cloudy | SCT013 | 26.1 | 23.3 | 85% | 28 | 76.07 | 1014.1 | ||||||
| 04 | 07:53 | Vrbl 7 | 16.09 | Fair | CLR | 25 | 22.8 | 25 | 22.2 | 88% | 26 | 76.05 | 1013.7 | 3.28 | |||
| 04 | 06:53 | NW 7 | 16.09 | Fair | CLR | 23.9 | 22.8 | 94% | 23 | 76.02 | 1013.4 | ||||||
| 04 | 05:53 | Calm | 16.09 | Overcast | BKN044 OVC055 | 23.9 | 22.8 | 94% | 23 | 76 | 1013.1 | ||||||
| 04 | 04:53 | NW 7 | 16.09 | Overcast | BKN045 OVC075 | 23.9 | 22.8 | 94% | 23 | 75.97 | 1012.8 | 3.28 | |||||
| 04 | 03:53 | W 9 | 11.27 | Light Rain | BKN036 OVC047 | 22.8 | 22.2 | 96% | 76 | 1013.1 | 2.31 | ||||||
| Date | Time (edt) | Wind (kph) | Vis. (km) | Weather | Sky Cond. | Air | Dwpt | Max. | Min. | Relative Humidity | Wind Chill (°C) | Heat Index (°C) | altimeter (cm) | sea level (mb) | 1 hr | 3 hr | 6 hr |
| 6 hour | |||||||||||||||||
| Temperature (ºC) | Pressure | Precipitation (cm) | |||||||||||||||